This is the latest recevied weather packets stored in our database for station/object SP2WM. If no packets are shown the sender has not sent any weather packets the latest 10 day(s).
| Time | Temp. | Humidity | Pressure | Rain* | Wind** | Luminosity | Snow |
|---|---|---|---|---|---|---|---|
| 1777591825 | 5° C | 81% | 1024 hPa | 0 mm | - | - | - |
| 1777591226 | 5° C | 79% | 1024 hPa | 0 mm | - | - | - |
| 1777590622 | 5° C | 79% | 1024 hPa | 0 mm | - | - | - |
| 1777590022 | 5.56° C | 80% | 1024 hPa | 0 mm | - | - | - |
| 1777589427 | 5° C | 78% | 1023.9 hPa | 0 mm | - | - | - |
| 1777588825 | 5.56° C | 78% | 1023.8 hPa | 0 mm | - | - | - |
| 1777588224 | 5.56° C | 77% | 1023.8 hPa | 0 mm | - | - | - |
| 1777587625 | 5.56° C | 76% | 1023.8 hPa | 0 mm | - | - | - |
| 1777587030 | 6.11° C | 76% | 1023.8 hPa | 0 mm | - | - | - |
| 1777586431 | 6.67° C | 75% | 1023.9 hPa | 0 mm | - | - | - |
| 1777585830 | 7.22° C | 74% | 1023.9 hPa | 0 mm | - | - | - |
| 1777585230 | 7.22° C | 73% | 1023.9 hPa | 0 mm | - | - | - |
| 1777584631 | 7.78° C | 72% | 1024 hPa | 0 mm | - | - | - |
| 1777584038 | 7.78° C | 71% | 1024 hPa | 0 mm | - | - | - |
| 1777583438 | 8.33° C | 72% | 1024 hPa | 0 mm | - | - | - |
| 1777582838 | 8.33° C | 69% | 1024 hPa | 0 mm | - | - | - |
| 1777582240 | 8.89° C | 70% | 1024.1 hPa | 0 mm | - | - | - |
| 1777581623 | 8.89° C | 67% | 1024 hPa | 0 mm | - | - | - |
| 1777581023 | 9.44° C | 67% | 1024.1 hPa | 0 mm | - | - | - |
| 1777580424 | 10° C | 66% | 1024.2 hPa | 0 mm | - | - | - |
| 1777579824 | 10° C | 63% | 1024.3 hPa | 0 mm | - | - | - |
| 1777578621 | 11.11° C | 62% | 1024.2 hPa | 0 mm | - | - | - |
| 1777578021 | 11.67° C | 60% | 1024.3 hPa | 0 mm | - | - | - |
| 1777577421 | 12.22° C | 59% | 1024.2 hPa | 0 mm | - | - | - |
| 1777576826 | 12.22° C | 58% | 1024.4 hPa | 0 mm | - | - | - |
* Rain latest hour (hover to see other rain measurements)
** Current wind speed in m/s (hover to see current wind gust speed)